Location: DARK SKY Beskydy - Park tmavé oblohy, www.darkskybeskydy.cz
(49.4926°N, 18.5016°E)
Time: 09:38:28
(UTC+02:00)

Transit 4A - Pass Details

Date: 27 February 2024
Orbit: 871 x 971 km, 66.8° (Epoch: 24 April)

Event Time Altitude Azimuth Distance (km) Brightness Sun altitude
Exits shadow 01:51:48 21° 26° (NNE) 1,946 10.0 -42.8°
Drops below altitude 10° 01:53:37 10° 32° (NNE) 2,584 10.8 -42.6°
Sets 01:56:09 0° 36° (NE) 3,514 11.7 -42.3°
